GW5988 Weather Reports


time (UTC)temp
C
wind
direction
speed
KPH
gust
KPH
rain 1hr
cm
rain 24hr
cm
rain mn
cm
humidity
%
barometer
mb
20260505130234 25 148 8.0 11.3 0.00 0.00 0.00 77 1020.3
20260505124724 25 167 9.7 11.3 0.00 0.00 0.00 78 1020.3
20260505124221 25 137 0.0 1.6 0.00 0.00 0.00 79 1020.4
20260505123717 24 133 1.6 4.8 0.00 0.00 0.00 79 1020.4
20260505123214 24 127 4.8 6.4 0.00 0.00 0.00 79 1020.3
20260505122711 25 186 3.2 6.4 0.00 0.00 0.00 79 1020.1
20260505122208 24 103 1.6 3.2 0.00 0.00 0.00 81 1020.2
20260505121704 23 197 3.2 4.8 0.00 0.00 0.00 82 1020.0
20260505121201 23 170 4.8 4.8 0.00 0.00 0.00 83 1020.0
20260505120657 23 182 0.0 1.6 0.00 0.00 0.00 83 1020.0
20260505120153 23 205 0.0 1.6 0.00 0.00 0.00 84 1020.0
20260505115647 23 167 3.2 4.8 0.00 0.00 0.00 84 1020.1
20260505115145 23 145 4.8 4.8 0.00 0.00 0.00 84 1020.0
20260505114642 23 178 3.2 3.2 0.00 0.00 0.00 84 1020.1
20260505114138 23 120 3.2 4.8 0.00 0.00 0.00 85 1019.9
20260505113635 22 208 0.0 1.6 0.00 0.00 0.00 85 1019.9
20260505113131 22 207 1.6 3.2 0.00 0.00 0.00 86 1019.9
20260505112627 22 294 1.6 3.2 0.00 0.00 0.00 86 1019.9
20260505112126 23 190 0.0 0.0 0.00 0.00 0.00 86 1019.5
20260505111625 22 197 0.0 0.0 0.00 0.00 0.00 87 1019.6
20260505111121 22 204 1.6 1.6 0.00 0.00 0.00 87 1019.5
20260505110618 22 227 3.2 3.2 0.00 0.00 0.00 87 1019.3
20260505110115 22 227 0.0 1.6 0.00 0.00 0.00 88 1019.3
20260505102051 22 212 0.0 1.6 0.00 0.00 0.00 89 1019.0
20260505101549 22 214 3.2 4.8 0.00 0.00 0.00 90 1019.0
20260505101045 21 200 0.0 0.0 0.00 0.00 0.00 90 1018.8
20260505100542 21 189 0.0 0.0 0.00 0.00 0.00 90 1018.9
20260505100039 22 178 3.2 3.2 0.00 0.00 0.00 90 1018.8
20260505095535 21 199 0.0 0.0 0.00 0.00 0.00 90 1018.7
20260505095031 21 203 1.6 1.6 0.00 0.00 0.00 90 1018.7
20260505094528 21 163 1.6 3.2 0.00 0.00 0.00 90 1018.7
20260505094024 21 122 3.2 3.2 0.00 0.00 0.00 90 1018.7
20260505093520 21 201 0.0 0.0 0.00 0.00 0.00 91 1018.7
20260505093018 21 165 1.6 3.2 0.00 0.00 0.00 90 1018.7
20260505092515 21 168 3.2 4.8 0.00 0.00 0.00 90 1018.8
20260505092014 21 190 0.0 0.0 0.00 0.00 0.00 90 1018.8
20260505091510 21 165 1.6 3.2 0.00 0.00 0.00 90 1018.8
20260505091009 21 201 0.0 0.0 0.00 0.00 0.00 91 1018.8
20260505090506 21 202 0.0 0.0 0.00 0.00 0.00 91 1018.6
20260505090004 21 172 1.6 1.6 0.00 0.00 0.00 90 1018.7
20260505085502 21 222 4.8 4.8 0.00 0.00 0.00 91 1018.6
20260505084959 21 194 0.0 0.0 0.00 0.00 0.00 91 1018.6
20260505084458 21 195 0.0 0.0 0.00 0.00 0.00 91 1018.5
20260505083955 21 129 0.0 0.0 0.00 0.00 0.00 91 1018.6
20260505083452 21 143 4.8 6.4 0.00 0.00 0.00 91 1018.5
20260505082948 21 251 4.8 4.8 0.00 0.00 0.00 91 1018.6
20260505082444 21 206 0.0 0.0 0.00 0.00 0.00 91 1018.6
20260505081941 21 201 0.0 0.0 0.00 0.00 0.00 90 1018.4
20260505081438 21 206 1.6 1.6 0.00 0.00 0.00 91 1018.3
20260505080934 21 189 0.0 1.6 0.00 0.00 0.00 90 1018.3
20260505080431 21 168 1.6 1.6 0.00 0.00 0.00 90 1018.4
20260505075926 21 151 3.2 3.2 0.00 0.00 0.00 90 1018.2
20260505075423 21 113 3.2 3.2 0.00 0.00 0.00 90 1018.4
20260505074921 21 202 0.0 0.0 0.00 0.00 0.00 90 1018.4
20260505074418 21 184 0.0 1.6 0.00 0.00 0.00 90 1018.3
20260505073915 21 148 1.6 3.2 0.00 0.00 0.00 90 1018.3
20260505073413 21 186 1.6 1.6 0.00 0.00 0.00 90 1018.4
20260505072910 21 198 0.0 0.0 0.00 0.00 0.00 90 1018.2
20260505072405 21 180 0.0 1.6 0.00 0.00 0.00 90 1018.3
20260505071902 21 199 0.0 0.0 0.00 0.00 0.00 90 1018.1
20260505071358 21 143 1.6 1.6 0.00 0.00 0.00 90 1018.2
20260505070857 22 196 0.0 0.0 0.00 0.00 0.00 90 1018.1
20260505070353 22 211 0.0 0.0 0.00 0.00 0.00 90 1018.2
20260505065848 22 199 1.6 1.6 0.00 0.00 0.00 90 1018.2
20260505065345 22 195 0.0 0.0 0.00 0.00 0.00 90 1018.3
20260505064842 21 190 0.0 0.0 0.00 0.00 0.00 90 1018.2
20260505064339 22 174 1.6 1.6 0.00 0.00 0.00 90 1018.2
20260505063837 22 176 1.6 1.6 0.00 0.00 0.00 90 1018.3
20260505063333 22 154 1.6 3.2 0.00 0.00 0.00 90 1018.5
20260505062830 22 198 0.0 0.0 0.00 0.00 0.00 91 1018.5
20260505062327 22 193 3.2 3.2 0.00 0.00 0.00 91 1018.5
20260505061824 22 192 0.0 1.6 0.00 0.00 0.00 91 1018.4
20260505061322 21 197 0.0 0.0 0.00 0.00 0.00 91 1018.4
20260505060819 22 193 1.6 1.6 0.00 0.00 0.00 91 1018.6
20260505060316 22 209 0.0 1.6 0.00 0.00 0.00 91 1018.6
20260505055812 22 195 0.0 0.0 0.00 0.00 0.00 91 1018.8
20260505055308 21 203 0.0 0.0 0.00 0.00 0.00 91 1018.7
20260505054806 21 205 0.0 0.0 0.00 0.00 0.00 91 1018.7
20260505054303 21 183 0.0 0.0 0.00 0.00 0.00 91 1019.0
20260505053801 21 163 1.6 1.6 0.00 0.00 0.00 91 1018.9
20260505053258 21 106 1.6 3.2 0.00 0.00 0.00 91 1019.1
20260505052754 21 213 0.0 0.0 0.00 0.00 0.00 91 1019.1
20260505052251 21 206 0.0 0.0 0.00 0.00 0.00 91 1019.1
20260505051748 21 201 0.0 0.0 0.00 0.00 0.00 91 1019.3
20260505051246 21 208 0.0 0.0 0.00 0.00 0.00 91 1019.2
20260505050744 21 176 1.6 1.6 0.00 0.00 0.00 91 1019.3
20260505050242 21 160 1.6 1.6 0.00 0.00 0.00 91 1019.2
20260505041712 21 178 1.6 1.6 0.00 0.00 0.00 91 1020.0
20260505041209 21 162 1.6 3.2 0.00 0.00 0.00 91 1020.1
20260505040706 21 186 0.0 1.6 0.00 0.00 0.00 90 1020.1
20260505040203 21 207 1.6 3.2 0.00 0.00 0.00 90 1020.2
20260505035700 21 169 0.0 1.6 0.00 0.10 0.10 90 1020.0
20260505035156 21 231 3.2 3.2 0.00 0.10 0.10 90 1020.2
20260505034652 21 203 0.0 0.0 0.00 0.10 0.10 90 1020.0
20260505034150 21 110 3.2 3.2 0.00 0.10 0.10 90 1020.1
20260505033646 21 154 1.6 3.2 0.00 0.10 0.10 90 1020.0
20260505033145 21 173 3.2 3.2 0.00 0.10 0.10 90 1020.2
20260505032643 21 205 0.0 0.0 0.00 0.10 0.10 90 1020.1
20260505032138 21 204 0.0 0.0 0.00 0.10 0.10 90 1020.3
20260505031636 21 183 1.6 1.6 0.00 0.10 0.10 90 1020.1
20260505031132 21 199 0.0 0.0 0.00 0.10 0.10 90 1020.0
20260505030629 21 215 1.6 1.6 0.00 0.10 0.10 90 1020.3
20260505030125 21 178 0.0 1.6 0.00 0.10 0.10 90 1020.2
20260505025621 21 141 1.6 3.2 0.00 0.10 0.10 90 1020.3
20260505025120 21 188 0.0 0.0 0.00 0.10 0.10 90 1020.1
20260505024616 21 189 1.6 1.6 0.00 0.10 0.10 90 1020.2
20260505024114 21 200 0.0 0.0 0.00 0.10 0.10 90 1020.1
20260505023611 21 204 0.0 0.0 0.00 0.10 0.10 90 1020.3
20260505023109 21 198 0.0 0.0 0.00 0.10 0.10 90 1020.3
20260505022606 21 171 1.6 1.6 0.00 0.10 0.10 89 1020.1
20260505022103 21 205 0.0 0.0 0.00 0.10 0.10 89 1020.0
20260505021559 21 183 0.0 0.0 0.00 0.10 0.10 89 1020.1
20260505021056 21 186 1.6 1.6 0.00 0.10 0.10 89 1020.1
20260505020556 21 196 0.0 0.0 0.00 0.10 0.10 89 1020.0
20260505020053 21 196 0.0 0.0 0.00 0.10 0.10 89 1019.7
20260505015550 21 204 0.0 0.0 0.00 0.10 0.10 89 1019.9
20260505015047 21 210 0.0 1.6 0.00 0.10 0.10 89 1019.7
20260505014544 21 194 0.0 0.0 0.00 0.10 0.10 89 1019.9
20260505014041 21 209 0.0 0.0 0.00 0.10 0.10 89 1019.6
20260505013538 21 193 0.0 0.0 0.00 0.10 0.10 89 1019.7
20260505013035 21 194 0.0 0.0 0.00 0.10 0.10 89 1019.7
20260505012533 21 193 0.0 0.0 0.00 0.10 0.10 89 1019.7
20260505012030 21 197 0.0 0.0 0.00 0.10 0.10 89 1019.5
20260505011525 21 202 0.0 0.0 0.00 0.10 0.10 88 1019.4
20260505011023 21 196 0.0 0.0 0.00 0.10 0.10 89 1019.3
20260505010518 21 185 0.0 0.0 0.00 0.10 0.10 88 1019.4
20260505010015 21 189 0.0 0.0 0.00 0.10 0.10 88 1019.3
20260505005511 21 173 0.0 0.0 0.00 0.10 0.10 88 1019.1
20260505005009 21 184 0.0 0.0 0.00 0.10 0.10 88 1019.2
20260505004506 21 195 0.0 0.0 0.00 0.10 0.10 88 1019.1
20260505004002 21 139 3.2 3.2 0.00 0.10 0.10 88 1019.3
20260505003500 21 178 0.0 0.0 0.00 0.10 0.10 88 1019.0
20260505002956 21 171 1.6 1.6 0.00 0.10 0.10 88 1019.2
20260505002452 21 116 1.6 3.2 0.00 0.10 0.10 88 1019.1
20260505001950 21 159 1.6 1.6 0.00 0.10 0.10 88 1019.1
20260505001448 21 159 1.6 3.2 0.00 0.10 0.10 88 1019.1
20260505000945 22 103 3.2 3.2 0.00 0.10 0.10 88 1019.2
20260505000443 22 115 3.2 3.2 0.00 0.10 0.10 88 1019.2
20260504235940 22 141 1.6 3.2 0.00 0.10 0.10 88 1019.2
20260504235437 22 155 3.2 3.2 0.00 0.10 0.10 87 1019.2
20260504234933 22 87 4.8 4.8 0.00 0.10 0.10 87 1019.1
20260504234430 22 162 1.6 3.2 0.00 0.10 0.10 87 1019.1
20260504233927 22 161 1.6 1.6 0.00 0.10 0.10 86 1019.2
20260504233422 22 191 0.0 0.0 0.00 0.10 0.10 86 1019.1
20260504232919 23 192 0.0 0.0 0.00 0.10 0.10 86 1019.0
20260504232417 23 171 1.6 1.6 0.00 0.10 0.10 86 1019.0
20260504231914 23 148 3.2 3.2 0.00 0.10 0.10 86 1019.0
20260504231410 23 145 3.2 3.2 0.00 0.10 0.10 85 1019.0
20260504230906 23 187 1.6 1.6 0.00 0.10 0.10 84 1018.9
20260504230404 23 201 0.0 0.0 0.00 0.10 0.10 84 1018.9
20260504225903 23 196 0.0 1.6 0.00 0.10 0.10 84 1018.7
20260504225358 23 194 0.0 0.0 0.00 0.10 0.10 84 1018.6
20260504224856 23 193 3.2 3.2 0.00 0.10 0.10 84 1018.7
20260504224352 23 176 3.2 4.8 0.00 0.10 0.10 83 1018.6
20260504223849 23 196 0.0 0.0 0.00 0.10 0.10 83 1018.5
20260504223345 23 153 6.4 9.7 0.00 0.10 0.10 83 1018.6
20260504222841 23 202 3.2 4.8 0.00 0.10 0.10 83 1018.4
20260504222338 23 189 4.8 9.7 0.00 0.10 0.10 83 1018.4
20260504221837 23 189 1.6 3.2 0.00 0.10 0.10 82 1018.5
20260504221333 23 190 1.6 1.6 0.00 0.10 0.10 82 1018.4
20260504220830 23 190 4.8 4.8 0.00 0.10 0.10 82 1018.3
20260504220327 23 181 1.6 3.2 0.00 0.10 0.10 82 1018.1
20260504215824 23 161 4.8 6.4 0.00 0.10 0.10 81 1018.2
20260504215321 24 210 6.4 6.4 0.00 0.10 0.10 81 1018.0
20260504214817 24 236 6.4 12.9 0.00 0.10 0.10 81 1018.1
20260504214314 24 85 0.0 1.6 0.00 0.10 0.10 81 1017.8
20260504213810 24 186 6.4 9.7 0.00 0.10 0.10 80 1017.9
20260504213306 24 164 3.2 4.8 0.00 0.10 0.10 81 1017.9
20260504212804 25 216 3.2 6.4 0.00 0.10 0.10 81 1018.0
20260504212300 24 194 3.2 4.8 0.00 0.10 0.10 82 1017.8
20260504211758 24 216 4.8 9.7 0.00 0.10 0.10 83 1017.7
20260504211254 24 144 8.0 9.7 0.00 0.10 0.10 82 1017.8
20260504210751 24 170 1.6 1.6 0.00 0.10 0.10 82 1017.8
20260504210248 24 199 8.0 9.7 0.00 0.10 0.10 82 1017.8
20260504205745 25 204 6.4 6.4 0.00 0.10 0.10 81 1017.8
20260504205243 24 141 9.7 12.9 0.00 0.10 0.10 82 1017.7
20260504204741 23 165 9.7 11.3 0.00 0.10 0.10 83 1017.7
20260504204239 23 186 11.3 16.1 0.00 0.10 0.10 84 1017.6
20260504203738 23 172 4.8 4.8 0.00 0.10 0.10 85 1017.7
20260504203235 23 169 6.4 9.7 0.00 0.10 0.10 85 1017.6
20260504202735 23 224 9.7 12.9 0.18 0.10 0.10 85 1017.6
20260504202232 23 208 3.2 3.2 0.30 0.10 0.10 85 1017.7
20260504201730 24 158 9.7 14.5 0.13 0.08 0.08 83 1018.0
20260504201227 25 219 4.8 4.8 0.00 0.05 0.05 82 1018.0
20260504200724 24 193 8.0 11.3 0.00 0.05 0.05 82 1017.7
20260504200220 24 133 4.8 6.4 0.00 0.05 0.05 82 1017.9
20260504195717 24 97 12.9 14.5 0.00 0.05 0.05 83 1017.9
20260504195213 24 150 8.0 9.7 0.00 0.05 0.05 84 1017.8
20260504194710 23 123 9.7 11.3 0.00 0.05 0.05 85 1018.0
20260504194206 23 200 6.4 11.3 0.00 0.05 0.05 86 1018.0
20260504193702 24 150 6.4 9.7 0.00 0.05 0.05 86 1017.9
20260504193200 24 168 6.4 9.7 0.00 0.05 0.05 86 1018.0
20260504192658 23 92 14.5 17.7 0.00 0.05 0.05 85 1018.0
20260504192156 24 163 9.7 11.3 0.00 0.05 0.05 86 1018.0
20260504191654 23 98 6.4 11.3 0.00 0.05 0.05 86 1018.2
20260504191150 23 100 4.8 6.4 0.18 0.05 0.05 86 1018.2
20260504190646 23 80 4.8 9.7 0.18 0.05 0.05 85 1018.1
20260504190143 24 78 9.7 11.3 0.00 0.03 0.03 84 1018.2
20260504185639 25 182 9.7 12.9 0.00 0.03 0.03 81 1018.2
20260504185136 25 101 9.7 12.9 0.00 0.03 0.03 79 1018.2
20260504184631 25 227 9.7 12.9 0.00 0.03 0.03 78 1018.4
20260504184127 26 195 9.7 11.3 0.00 0.03 0.03 76 1018.2
20260504183624 26 129 3.2 4.8 0.00 0.03 0.03 76 1018.3
20260504183122 26 180 11.3 14.5 0.00 0.03 0.03 74 1018.3
20260504182620 25 170 8.0 11.3 0.00 0.03 0.03 75 1018.3
20260504182117 26 144 16.1 17.7 0.00 0.03 0.03 74 1018.3
20260504181614 25 174 9.7 12.9 0.00 0.03 0.03 74 1018.3
20260504181111 26 193 9.7 14.5 0.00 0.03 0.03 74 1018.4
20260504180610 26 220 8.0 12.9 0.00 0.03 0.03 75 1018.4
20260504180109 26 200 9.7 12.9 0.00 0.03 0.03 75 1018.5
20260504175606 26 197 12.9 16.1 0.00 0.03 0.03 75 1018.5
20260504175102 26 121 6.4 6.4 0.00 0.03 0.03 75 1018.8
20260504174600 25 193 9.7 14.5 0.00 0.03 0.03 75 1018.9
20260504174057 26 165 14.5 17.7 0.00 0.03 0.03 74 1018.9
20260504173554 25 110 4.8 6.4 0.00 0.03 0.03 75 1018.9
20260504173052 26 157 11.3 16.1 0.00 0.03 0.03 75 1019.0
20260504172547 26 109 1.6 3.2 0.00 0.03 0.03 73 1018.9
20260504172044 26 103 9.7 11.3 0.00 0.03 0.03 72 1019.1
20260504171541 26 100 8.0 11.3 0.00 0.03 0.03 72 1019.1
20260504171038 26 217 3.2 9.7 0.00 0.03 0.03 70 1019.0
20260504170533 27 173 6.4 6.4 0.00 0.03 0.03 69 1019.2
20260504150918 27 170 6.4 11.3 0.00 0.03 0.03 63 1019.9
20260504150414 26 101 19.3 20.9 0.00 0.03 0.03 65 1020.0
20260504140841 25 141 4.8 4.8 0.00 0.03 0.03 71 1019.4
20260504140336 25 163 11.3 17.7 0.00 0.03 0.03 71 1019.6